Myrtle Beach, SC

7:00 AM EST on February 13, 2016 (GMT -0500)
Myrtle Beach International

Weather History for KMYR - October, 2012

Change the Weather History Date:

Tuesday, October 2, 2012

  Actual Average (KCRE) Record (KCRE)
Temperature  
Mean Temperature 80 °F 70 °F  
Max Temperature 84 °F 79 °F 86 °F (1952)
Min Temperature 75 °F 61 °F 46 °F (2011)
Degree Days  
Heating Degree Days 0 1  
Month to date heating degree days 2  
Since 1 July heating degree days 6  
Cooling Degree Days 14 6  
Month to date cooling degree days 12  
Year to date cooling degree days 1796  
Growing Degree Days 30 (Base 50)    
Moisture  
Dew Point 72 °F    
Average Humidity 78    
Maximum Humidity 89    
Minimum Humidity 66    
Precipitation  
Precipitation 0.00 in 0.16 in - ()
Month to date precipitation 0.31  
Year to date precipitation 41.94  
Sea Level Pressure  
Sea Level Pressure 29.86 in    
Wind  
Wind Speed 13 mph (South)    
Max Wind Speed 21 mph    
Max Gust Speed 23 mph    
Visibility 9 miles    
Events      
T = Trace of Precipitation, MM = Missing Value Source: NWS Daily Summary

Daily Weather History Graph

Daily Weather History Graph

Search for Another Location

Airport or City:

Trip Planner

Search our weather history database for the weather conditions in past years. The results will help you decide how hot, cold, wet, or windy it might be!

Date:

Astronomy

Oct. 02, 2012 Rise Set
Actual Time 7:11 AM EDT 6:58 PM EDT
Civil Twilight 6:46 AM EDT 7:22 PM EDT
Nautical Twilight 6:17 AM EDT 7:51 PM EDT
Astronomical Twilight 5:48 AM EDT 8:20 PM EDT
Moon 8:19 PM EDT (10/2) 9:27 AM EDT (10/2)
Length of Visible Light 12h 36m
Length of Day
11h 46m
Waning Gibbous, 94% of the Moon is Illuminated
Oct 2
Waning Gibbous
Oct 8
Last Quarter
Oct 15
New
Oct 21
First Quarter
Oct 29
Full

Hourly Weather History & Observations

Time (EDT) Temp. Heat Index Dew Point Humidity Pressure Visibility Wind Dir Wind Speed Gust Speed Precip Events Conditions
12:15 AM 78.8 °F - 73.4 °F 83% 29.83 in 10.0 mi SE 12.7 mph - N/A   Partly Cloudy
12:35 AM 78.8 °F - 73.4 °F 83% 29.83 in 10.0 mi SE 13.8 mph - N/A   Scattered Clouds
12:55 AM 78.8 °F - 73.4 °F 83% 29.83 in 10.0 mi SE 11.5 mph - N/A   Clear
1:15 AM 78.8 °F - 73.4 °F 83% 29.83 in 10.0 mi SE 11.5 mph - N/A   Scattered Clouds
1:35 AM 78.8 °F - 73.4 °F 83% 29.82 in 10.0 mi SSE 11.5 mph - N/A   Mostly Cloudy
1:55 AM 78.8 °F - 71.6 °F 78% 29.83 in 10.0 mi SSE 9.2 mph - N/A   Overcast
2:15 AM 78.8 °F - 71.6 °F 78% 29.82 in 10.0 mi SSE 10.4 mph - N/A   Overcast
2:35 AM 78.8 °F - 71.6 °F 78% 29.81 in 10.0 mi SSE 11.5 mph - N/A   Mostly Cloudy
2:55 AM 78.8 °F - 71.6 °F 78% 29.80 in 10.0 mi SSE 11.5 mph - N/A   Scattered Clouds
3:15 AM 78.8 °F - 71.6 °F 78% 29.81 in 10.0 mi SSE 15.0 mph - N/A   Mostly Cloudy
3:35 AM 78.8 °F - 71.6 °F 78% 29.81 in 10.0 mi South 12.7 mph 21.9 mph N/A   Scattered Clouds
3:55 AM 77.0 °F - 69.8 °F 78% 29.81 in 8.0 mi South 9.2 mph 16.1 mph N/A   Mostly Cloudy
4:15 AM 77.0 °F - 71.6 °F 83% 29.80 in 7.0 mi South 9.2 mph - N/A   Overcast
4:35 AM 75.2 °F - 69.8 °F 83% 29.80 in 8.0 mi South 9.2 mph - N/A   Overcast
4:55 AM 75.2 °F - 71.6 °F 89% 29.80 in 7.0 mi South 8.1 mph - N/A   Mostly Cloudy
5:15 AM 75.2 °F - 69.8 °F 83% 29.80 in 9.0 mi South 5.8 mph - N/A   Scattered Clouds
5:35 AM 77.0 °F - 71.6 °F 83% 29.80 in 8.0 mi South 6.9 mph - N/A   Scattered Clouds
5:50 AM 77.0 °F - 71.6 °F 83% 29.81 in 8.0 mi South 11.5 mph - N/A   Drizzle
6:50 AM 78.8 °F - 71.6 °F 78% 29.81 in 10.0 mi South 13.8 mph - N/A   Mostly Cloudy
7:45 AM 78.8 °F - 71.6 °F 78% 29.83 in 8.0 mi South 13.8 mph - N/A   Mostly Cloudy
8:50 AM 78.8 °F - 71.6 °F 78% 29.86 in 8.0 mi SSW 11.5 mph - N/A   Mostly Cloudy
9:45 AM 80.6 °F 85.4 °F 73.4 °F 79% 29.87 in 10.0 mi SSW 10.4 mph - N/A   Scattered Clouds
10:45 AM 84.2 °F 89.6 °F 71.6 °F 66% 29.88 in 10.0 mi SW 13.8 mph - N/A   Mostly Cloudy
11:50 AM 84.2 °F 90.9 °F 73.4 °F 70% 29.89 in 7.0 mi South 17.3 mph - N/A   Mostly Cloudy
12:50 PM 84.2 °F 92.3 °F 75.2 °F 74% 29.88 in 7.0 mi South 18.4 mph - N/A   Mostly Cloudy
1:47 PM 84.2 °F 90.9 °F 73.4 °F 70% 29.87 in 7.0 mi South 20.7 mph - N/A   Mostly Cloudy
2:47 PM 84.2 °F 90.9 °F 73.4 °F 70% 29.87 in 8.0 mi South 18.4 mph - N/A   Mostly Cloudy
3:45 PM 84.2 °F 90.9 °F 73.4 °F 70% 29.88 in 7.0 mi South 20.7 mph - N/A   Mostly Cloudy
4:50 PM 82.4 °F 88.2 °F 73.4 °F 74% 29.90 in 7.0 mi South 19.6 mph - N/A   Mostly Cloudy
5:45 PM 80.6 °F 84.6 °F 71.6 °F 74% 29.91 in 7.0 mi South 17.3 mph 23.0 mph N/A   Mostly Cloudy
6:45 PM 80.6 °F 84.6 °F 71.6 °F 74% 29.92 in 7.0 mi South 18.4 mph - N/A   Mostly Cloudy
7:50 PM 78.8 °F - 71.6 °F 78% 29.94 in 8.0 mi South 13.8 mph - N/A   Mostly Cloudy
8:50 PM 78.8 °F - 71.6 °F 78% 29.96 in 8.0 mi South 11.5 mph - N/A   Scattered Clouds
9:55 PM 78.8 °F - 71.6 °F 78% 29.97 in 8.0 mi South 13.8 mph - N/A   Scattered Clouds
11:15 PM 78.8 °F - 73.4 °F 83% 30.00 in 10.0 mi South 11.5 mph - N/A   Scattered Clouds
11:35 PM 78.8 °F - 73.4 °F 83% 30.00 in 10.0 mi South 12.7 mph - N/A   Scattered Clouds
11:55 PM 78.8 °F - 73.4 °F 83% 30.01 in 10.0 mi South 13.8 mph 17.3 mph N/A   Partly Cloudy